Погода в Леонтьеве

Россия / Костромская область     58°10′29″N   44°29′59″E
темп.,
°C
ветер,
м/с
пор.,
м/с
влажн.,
%
обл.,
%
осадки,
мм/ч
давл.,
гПа
погр.,
м
23 января, сб
сб2300:00−18юв4997100 1.0 1019318
03:00−17юв4996100 2.1 1018353
06:00−15юв4896100 1.1 1017312
09:00−15юв4896100 1.9 1015274
12:00−12юв4794100 0.3 1016272
15:00−9юв3795100 0.4 1015275
18:00−8юв3795100 0.3 1014253
21:00−5юв3696100 0.7 1013199
24 января, вс
вс2400:00−7вюв2298100 0.3 101386
03:00−1ююв1399100 1.6 1013112
06:00+1ююз3798100 0.0 1014260
09:00+1юз2699100 0.0 1015268
12:00+1ююз26100100 0.0 1016266
15:00+1ююз3799100 0.5 1016247
18:00+1ю2699100 0.0 1017259
21:00+1ю3898100 0.0 1018294
25 января, пн
пн2500:00+1ю2798100 0.0 1018275
03:00+1ю3798100 0.2 1018210
06:00+1ю41098100 0.0 1017408
09:00+1ю3998100 0.7 1018293
12:00+1ю39100100 0.2 1018337
15:00+1ююз3998100 0.6 1018352
18:00+1ю3994100 0.1 1019420
21:00−1ю4995100 0.1 1019359
26 января, вт
вт2600:00−3ю4995100 0.0 1020430
03:00−3ю4894100 0.0 1020547
06:00−4ююв3895100 0.1 1019369
09:00−4ююв3894100 0.2 1018465
12:00−2ююв3795100 0.1 1017392
15:00−1ююв3996100 0.2 1016471
18:00−2ююв41097100 1.3 1015633
21:00−2ююв41096100 3.3 1014576
27 января, ср
ср2700:00−2ююв3995100 0.3 1014413
03:00−1ююв41097100 0.6 1013511
06:00−5юв249794 0.1 1014115
09:00−1юв51293100 1.7 1011647
12:00+1юв41096100 0.0 1013454
15:00+1ю3896100 0.1 1017478
18:00+1ююв41198100 0.1 1012444
21:00−1ю51290100 0.3 10101139